Volver al catálogo

FENGYUN 1C DEB

ActivoPO
NORAD 31964·DEBRIS·🇨🇳 China

Lanzado May 10, 1999 desde Taiyuan Satellite Launch Center

Loading…

Próximos Pases (próximas 24 horas)

TLE

ActualizadoSource: Space-Track

Época: Sep 14, 2026, 20:43 UTC

1 31964U 99025CNR 26257.86358977  .00008784  00000-0  16592-2 0  9995
2 31964  98.7156  41.1215 0026321 258.5358 101.2887 14.64464675715440

Sigue FENGYUN 1C DEB en tiempo real con AllMySat

Download on the App Store